COSMOS 1275 DEB, 20089

Orbit data source: Space-Track

COSMOS 1275 DEB, 20089 is space debris in LEO originally from a launch on Thu, 04 Jun 1981 UTC launched from the Plesetsk Missile And Space Complex (PKMTR). Debris objects in space refer to the collection of defunct objects orbiting the Earth. Examples of debris include non-operational satellites, rocket bodies, and fragments generated from explosions, collisions, or faulty payload assembly.

Loading next visibility...
Identifier
20089, 1981-053MK
Orbit
LEO
Country
Flag of CISCIS
Related business
Manufacturer
Unknown
Mission
Spacecraft
Bus & Motor
Unknown
Mass
Unknown
Launch date (UTC)
1981-06-04 (45 years ago)
Launch vehicle
Unknown
Launch site
Plesetsk Missile And Space Complex (PKMTR)
Object type
Payload
Rocket body
Debris
Shape & HBR
Unknown shape, 0.1 m
Radar Cross Section
Small (<0.1 m²)

Expand to show TLE details & history
Last TLE update: 2 days ago

TLE from 2 days ago
0 COSMOS 1275 DEB
1 20089U 81053MK  26261.84421715  .00001356  00000-0  71264-3 0  9993
2 20089  82.7454 300.2839 0043289 178.3704 181.7622 14.13015846747527
Epoch: 2026-09-18T20:15Z
TLE epoch observation values (Epoch: 2026-09-18T20:15:40.361Z)
Latitude
-0.00007°
Longitude
-1.39556°
Altitude
883.295 km
Speed
7.395 km/s
True Right ascension
20h 01m 08s
True Declination
0° 00' 00"
Sunlit
Object was in full shadow at epoch
Visualization orbit readout
Latitude
Unknown
Longitude
Unknown
Altitude
Unknown
Speed
Unknown
Apparent Right ascension
Unknown
Apparent Declination
Unknown
Sunlit
N/A
Visualization observer readout
Local Sidereal Time
06:45:19
Azimuth
Unknown
Elevation
Unknown
Doppler factor
Unknown
Orbital elements
Apogee altitude
877.447 km
Perigee altitude
814.901 km
Semi-major axis
7,224.311 km
Eccentricity
0.00433
Inclination
82.7454°
RAAN
300.2839°
Arg. of periapsis
178.3704°
True anomaly
181.74703°
Mean anomaly
181.7622°
Eccentric anomaly
181.75461°
Mean motion
3.53467 °/min
Orbital period
101.85 mins
BSTAR
0.00071264
Loading maneuver chart data...
Computing Atmospheric mass density...

Documentation

Showing up to 5 results
|